Location: Wavehorne
(51.0500°N, 0.8333°E)
Time: 19:54:00
(UTC+00:00)

USA 306 - Pass Details

Date: 20 June 2021
Orbit: 566 x 573 km, 54.0° (Epoch: 16 July)

Event Time Altitude Azimuth Distance (km) Brightness Sun altitude
Exits shadow 01:31:13 19° 185° (S) 1,385 4.3 -12.7°
Maximum altitude 01:33:21 29° 139° (SE) 1,056 4.0 -12.6°
Drops below altitude 10° 01:37:03 10° 79° (E) 1,873 6.0 -12.4°
Sets 01:39:30 0° 68° (ENE) 2,772 7.1 -12.2°
